Location: Newark
(39.0622°N, 106.5590°E)
Time: 00:30:18
(UTC+00:00)

Vanguard 2 Rocket - Pass Details

Date: 31 January 2020
Orbit: 553 x 3327 km, 32.9° (Epoch: 24 February)

Event Time Altitude Azimuth Distance (km) Brightness Sun altitude
Rises 02:00:47 0° 261° (W) 3,450 9.5 18.6°
Reaches altitude 10° 02:03:50 10° 241° (WSW) 2,836 9.3 19.0°
Maximum altitude 02:08:20 18° 201° (SSW) 2,779 9.8 19.6°
Drops below altitude 10° 02:14:25 10° 163° (SSE) 4,037 11.5 20.5°
Sets 02:20:09 0° 148° (SSE) 5,642 12.4 21.2°
